Regional Weather Roundup
Issued by NWS Grand Forks, ND

Home | Current Version | Previous Version | Text Only | Print | Product List | Glossary On
Versions: 1 2 3 4 5 6 7 8 9 10 11 12 13 14 15 16 17 18 19 20 21 22 23 24 25 26 27 28 29 30 31 32 33 34 35 36 37 38 39 40 41 42 43 44 45 46 47 48 49 50
000
ASUS43 KFGF 212331
RWRFGF
PRAIRIE TO PINES  WEATHER ROUNDUP
NATIONAL WEATHER SERVICE EASTERN NORTH DAKOTA/GRAND FORKS ND
500 PM CST SUN DEC 21 2014

 **SATELLITE DATA USED TO AUGMENT SKY COVER AT AUTOMATED STATIONS**
 *****  WEATHER ACROSS EASTERN NORTH DAKOTA  *****

CITY           SKY/WX    TMP DP  RH WIND       PRES   REMARKS
GRAND FORKS    CLOUDY    32  30  92 SE14      29.60S WCI  22
GRAND FRKS AFB CLOUDY    32  32 100 SE10      29.59S WCI  23
GRAND FRKS NWS   N/A     32 N/A N/A S9          N/A  WCI  24
DEVILS LAKE    CLOUDY    30  25  80 SE13      29.49S WCI  20
FARGO          CLOUDY    34  31  88 SE14      29.59S WCI  25
WAHPETON ARPT  CLOUDY    32  32 100 SE14      29.60R WCI  22
$$

 ***** WEATHER ACROSS CENTRAL AND WESTERN NORTH DAKOTA  *****

CITY           SKY/WX    TMP DP  RH WIND       PRES   REMARKS
BISMARCK       PTCLDY    29  25  85 SE7       29.43S WCI  22
MINOT          CLOUDY    35  31  85 E8        29.39R
JAMESTOWN      CLOUDY    32  30  92 SE7       29.49S
MINOT AFB      CLOUDY    32  32 100 E12       29.39R WCI  23
GARRISON         N/A     33  29  85 SE9       29.39R
WILLISTON      CLOUDY    35  28  75 CALM      29.34R
DICKINSON      CLOUDY    38  28  67 S5        29.33S
HETTINGER      CLOUDY    39  30  70 CALM      29.38R
$$

 *****  OTHER AIRPORT OBSERVATIONS IN OUR AREA  *****

CITY           SKY/WX    TMP DP  RH WIND       PRES   REMARKS
WALHALLA         N/A     30  30 100 SE13      29.57S FOG     WCI  20
GRAFTON AIRPOR NOT AVBL
VALLEY CITY AR MIX PCPN  30  30 100 SE16      29.53R WCI  19
CANDO          CLOUDY    30  30 100 SE13      29.50S FOG     WCI  20
CAVALIER APRT  CLOUDY    32  32 100 S14       29.59S FOG     WCI  22
GWINNER        CLOUDY    34  34 100 SE15      29.54F WCI  24
ROLLA          FOG       27  27 100 S10       29.49R VSB 1/4 WCI  17
 ***** THE ABOVE OBSERVATIONS ARE NON NWS ARE NOT QUALITY
       CONTROLLED AND MAY MIS-REPORT RAIN FOR SNOW...
$$

  *****  WEATHER ACROSS NORTHERN MINNESOTA  *****

CITY           SKY/WX    TMP DP  RH WIND       PRES   REMARKS
FLAG ISLAND    CLOUDY    30  28  93 S14       29.65S FOG     WCI  20
WARROAD        CLOUDY    30  27  86 SE9       29.65F WCI  22
ROSEAU         CLOUDY    32  28  86 SE9       29.64S WCI  24
HALLOCK        CLOUDY    32  30  93 CALM      29.61S FOG
THF RVR FALLS  CLOUDY    30  30 100 SE17      29.61F WCI  18
BAUDETTE       CLOUDY    31  28  89 S6        29.66S
WASKISH        CLOUDY    32  30  93 CALM      29.67S
CROOKSTON      CLOUDY    32  30  93 S10       29.62S WCI  24
STEPHEN NDAWN    N/A     30  30 100 S12         N/A  WCI  21
GREENBUSH NDAW   N/A     30  30 100 SE1         N/A
$$
  *****  WEATHER ACROSS CENTRAL AND WEST MINNESOTA  *****

CITY           SKY/WX    TMP DP  RH WIND       PRES   REMARKS
FOSSTON        CLOUDY    30  28  93 SE9       29.63S WCI  22
BEMIDJI        CLOUDY    32  30  93 S7        29.64F
PARK RAPIDS    CLOUDY    33  31  92 SE12      29.64R FOG     WCI  24
ELBOW LAKE     CLOUDY    32  32 100 SE13      29.60S FOG     WCI  23
WADENA         CLOUDY    32  32 100 SE9       29.64R FOG     WCI  24
DETROIT LAKES  CLOUDY    32  32 100 SE13      29.61S WCI  22
MOORHEAD       CLOUDY    34  34 100 SE9       29.60S
FERGUS FALLS   CLOUDY    34  32  93 SE12      29.62S FOG
MORRIS MN      CLOUDY    34  34 100 SE15      29.59S FOG     WCI  24
STAPLES        CLOUDY    32  32 100 SE5       29.65S FOG
$$
  *****  WEATHER ELSEWHERE ACROSS MINNESOTA  *****

CITY           SKY/WX    TMP DP  RH WIND       PRES   REMARKS
DULUTH         FOG       32  30  92 SE10      29.74R VSB 1/2 WCI  24
INTRNTL FALLS  CLOUDY    32  30  92 SE7       29.70R FOG
ELY            CLOUDY    30  28  93 S9        29.74S WCI  22
CLOQUET        CLOUDY    32  30  93 SE5       29.73S FOG
WHEATON        CLOUDY    30  30 100 SE16      29.59F FOG     WCI  19
BRAINERD       CLOUDY    33  32  96 SE6       29.68S FOG
HIBBING        CLOUDY    33  30  88 S9        29.71S FOG
ALEXANDRIA     CLOUDY    33  32  96 SE13      29.63S FOG     WCI  24
SAINT CLOUD    CLOUDY    36  33  89 SE13      29.69R FOG
MINNEAPOLIS    CLOUDY    36  35  96 SE9       29.75S FOG
$$

  *****  WEATHER ACROSS SOUTH DAKOTA  *****

CITY           SKY/WX    TMP DP  RH WIND       PRES   REMARKS
SIOUX FALLS    CLOUDY    37  35  92 S17G31    29.58S
BROOKINGS      NOT AVBL
WATERTOWN      CLOUDY    33  32  96 S15       29.52S FOG     WCI  23
HURON          CLEAR     35  32  88 SE12      29.50R
SISSETON         N/A     33  32  96 S12       29.55S WCI  24
ABERDEEN       CLOUDY    33  30  88 S15       29.51F WCI  23
MITCHELL       MOCLDY    37  34  89 S18       29.51S FOG
PIERRE         MOCLDY    33  28  81 E7        29.40F
MOBRIDGE       MOCLDY    33  28  81 E13       29.40S WCI  24
RAPID CITY     CLOUDY    43  26  51 N9        29.40R
$$

  *****  SOME WEATHER IN NEARBY STATES *****

CITY           SKY/WX    TMP DP  RH WIND       PRES   REMARKS
GLASGOW MT     CLOUDY    33  30  88 CALM      29.33R
GREAT FALLS MT CLOUDY    43  23  45 W22G31    29.52R
CHEYENNE WY    CLOUDY    43  28  55 NW26G41   29.53R
SCOTTSBLUFF NE CLOUDY    41  32  70 NW10G20   29.47R
OMAHA NE       CLOUDY    41  38  89 S16       29.73F
DES MOINES IA  CLOUDY    43  37  79 S13       29.82S
DAVENPORT IA   CLOUDY    38  31  76 SE17      29.96S
CHICAGO IL     CLOUDY    35  28  75 S16       30.08S
EAU CLAIRE WI  CLOUDY    37  34  89 S13       29.81R
LA CROSSE WI   CLOUDY    39  35  86 S15G22    29.86S FOG
$$

  *****  SOME NATIONAL WEATHER *****

CITY           SKY/WX    TMP DP  RH WIND       PRES   REMARKS
LA GUARDIA NY  CLOUDY    35  29  78 N9        30.31R
RALEIGH NC     CLOUDY    46  34  62 E3        30.26R
ATLANTA GA     CLOUDY    49  44  83 E9        30.10S
NEW ORLEANS LA CLOUDY    56  51  84 E7        30.00F
OKLAHOMA CITY  DRIZZLE   46  43  87 SE18      29.74F FOG
ALBUQUERQUE NM MOCLDY    50  28  42 CALM      29.91F
SALT LAKE CITY CLOUDY    43  39  86 SE7       29.93R
LOS ANGELES CA CLOUDY    62  56  80 W9        30.04F
BOISE ID       LGT RAIN  43  39  87 NW12      30.04R
SEATTLE WA     CLOUDY    54  44  69 SW10G23   30.02R
$$

*** WEATHER ACROSS MANITOBA...SASKATCHEWAN AND ONTARIO ***
                ***ONTARIO***

CITY           SKY/WX    TMP DP  RH WIND       PRES   REMARKS
GERALDTON      CLOUDY    32  30  93 S9        29.90S WCI  24
THUNDER BAY    LGT SNOW  34  32  93 SE8       29.87
SIOUX LOOKOUT  LGT SNOW  28  28 100 S7        29.72  FOG     WCI  21
TORONTO        MOCLDY    32  23  69 S6        30.29S
BIG TROUT LK   FLURRIES  28  27  93 SE9       29.77S WCI  20
PICKLE LAKE    LGT SNOW  28  27  93 SE8       29.75F WCI  20
DRYDEN         CLOUDY    28  28 100 S9        29.69S FOG     WCI  20
KENORA         FRZ DRZL  28  28 100 S9        29.66  VSB 1   WCI  20
$$
                *** MANITOBA***

CITY           SKY/WX    TMP DP  RH WIND       PRES   REMARKS
BRANDON        FOG       27  25  93 E10G17    29.50  VSB 1/8 WCI  17
DAUPHIN        CLOUDY    28  27  93 E6        29.53S WCI  22
ISLAND LAKE    DRIZZLE   28  28 100 SE6       29.67  FOG     WCI  22
PILOT MOUND      N/A     27  27 100 CALM        N/A
THE PAS        CLOUDY    23  21  93 E5        29.58  WCI  17
THOMPSON       FRZ DRZL  21  19  93 NE3       29.67
WINNIPEG       CLOUDY    30  28  93 S18       29.61  FOG     WCI  18
LYNN LAKE      FLURRIES  14  12  92 E3        29.65S
CHURCHILL      FLURRIES  12  10  92 SW5       29.77  WCI   4
GILLAM         FRZ DRZL  21  19  93 NE5       29.73  WCI  15
$$
                ***SASKATCHEWAN***

CITY           SKY/WX    TMP DP  RH WIND       PRES   REMARKS
ESTEVAN        MOCLDY    27  25  93 E9        29.36R WCI  17
KINDERSLEY     LGT SNOW  23  19  86 N9        29.39R WCI  13
LLOYDMINSTER   CLOUDY    18  18 100 NW3       29.44  FOG
PRINCE ALBERT  CLOUDY    25  23  93 E10       29.49R FOG     WCI  15
REGINA         PTCLDY    25  23  93 E13       29.35R WCI  13
YORKTON        CLOUDY    27  25  93 E12       29.46R FOG     WCI  16
N. BATTLEFORD  CLOUDY    21  19  93 NE3       29.46R
LA RONGE       CLOUDY    19  18  93 NE6       29.57  WCI  11
SASKATOON      CLOUDY    25  23  93 NE15      29.42R WCI  12
SWIFT CURRENT  LGT RAIN  36  32  87 W15       29.27R
$$
NOTE: THESE ARE AUTOMATED STATIONS WITH LIMITED QUALITY CONTROL
      "FAIR" INDICATES FEW OR NO CLOUDS BELOW 12,000 FEET WITH NO
      SIGNIFICANT WEATHER AND/OR OBSTRUCTIONS TO VISIBILITY.
      SKY/WX - SKY CONDITION AND SIGNIFICANT WEATHER.
      TMP - AIR TEMPERATURE.    DP   - DEWPOINT TEMPERATURE.
      RH  - RELATIVE HUMIDITY.  PRES - PRESSURE.
      HX  - HEAT INDEX.         WCI  - WIND CHILL INDEX.
$


USA.gov is the U.S. government's official web portal to all federal, state and local government web resources and services.